Location: Elstree
(51.6403°N, 0.2969°W)
Time: 01:50:05
(UTC+00:00)

Cosmos 1844 - Pass Details

Date: 03 March 2021
Orbit: 822 x 868 km, 70.9° (Epoch: 11 April)

Event Time Altitude Azimuth Distance (km) Brightness Sun altitude
Rises 18:31:50 0° 330° (NNW) 3,464 7.3 -8.0°
Reaches altitude 10° 18:34:23 10° 335° (NNW) 2,521 6.5 -8.4°
Maximum altitude 18:40:05 55° 53° (NE) 1,030 3.9 -9.3°
Drops below altitude 10° 18:45:41 10° 131° (SE) 2,484 5.7 -10.2°
Enters shadow 18:47:07 - 134° (SE) 3,013 6.1 -10.4°
